Time,TemperatureF,DewpointF,PressureIn,WindDirection,WindDirectionDegrees,WindSpeedMPH,WindSpeedGustMPH,Humidity,HourlyPrecipIn,Conditions,Clouds,dailyrainin,SolarRadiationWatts/m^2,SoftwareType,DateUTC
2013-01-27 00:01:00,23.8,14.8,30.48,North,5,2.0,5.0,68,0.00,,,0.00,0,Wunderground v.1.15,2013-01-27 05:01:00,
2013-01-27 00:07:00,23.7,15.0,30.48,North,11,3.0,5.0,69,0.00,,,0.00,0,Wunderground v.1.15,2013-01-27 05:07:00,
2013-01-27 00:08:00,23.7,14.7,30.49,North,5,3.0,5.0,68,0.00,,,0.00,0,Wunderground v.1.15,2013-01-27 05:08:00,
2013-01-27 00:14:00,23.7,14.7,30.49,NNW,342,3.0,3.0,68,0.00,,,0.00,0,Wunderground v.1.15,2013-01-27 05:14:00,
2013-01-27 00:15:00,23.7,14.3,30.49,North,360,3.0,3.0,67,0.00,,,0.00,0,Wunderground v.1.15,2013-01-27 05:15:00,
2013-01-27 00:20:00,23.6,14.9,30.48,NNE,31,2.0,4.0,69,0.00,,,0.00,0,Wunderground v.1.15,2013-01-27 05:20:00,
2013-01-27 00:26:00,23.5,14.5,30.49,WNW,303,3.0,6.0,68,0.00,,,0.00,0,Wunderground v.1.15,2013-01-27 05:26:00,
2013-01-27 00:31:00,23.5,14.5,30.49,NNW,339,3.0,3.0,68,0.00,,,0.00,0,Wunderground v.1.15,2013-01-27 05:31:00,
2013-01-27 00:37:00,23.5,14.1,30.49,NW,326,2.0,6.0,67,0.00,,,0.00,0,Wunderground v.1.15,2013-01-27 05:37:00,
2013-01-27 00:42:00,23.5,14.8,30.49,SSE,154,2.0,3.0,69,0.00,,,0.00,0,Wunderground v.1.15,2013-01-27 05:42:00,
2013-01-27 00:47:00,23.4,15.1,30.49,WNW,296,1.0,4.0,70,0.00,,,0.00,0,Wunderground v.1.15,2013-01-27 05:47:00,
2013-01-27 00:52:00,23.4,15.1,30.49,NNW,327,2.0,3.0,70,0.00,,,0.00,0,Wunderground v.1.15,2013-01-27 05:52:00,
2013-01-27 00:58:00,23.4,15.4,30.50,ENE,66,2.0,3.0,71,0.00,,,0.00,0,Wunderground v.1.15,2013-01-27 05:58:00,
2013-01-27 01:04:00,23.3,14.6,30.49,West,265,3.0,9.0,69,0.00,,,0.00,0,Wunderground v.1.15,2013-01-27 06:04:00,
2013-01-27 01:09:00,23.3,14.6,30.49,WSW,258,4.0,9.0,69,0.00,,,0.00,0,Wunderground v.1.15,2013-01-27 06:09:00,
2013-01-27 01:14:00,23.3,14.6,30.49,NNE,25,3.0,4.0,69,0.00,,,0.00,0,Wunderground v.1.15,2013-01-27 06:14:00,
2013-01-27 01:20:00,23.2,14.5,30.49,ENE,68,2.0,2.0,69,0.00,,,0.00,0,Wunderground v.1.15,2013-01-27 06:20:00,
2013-01-27 01:25:00,23.1,14.8,30.49,North,5,2.0,3.0,70,0.00,,,0.00,0,Wunderground v.1.15,2013-01-27 06:25:00,
2013-01-27 01:30:00,23.1,14.4,30.49,NNE,25,2.0,4.0,69,0.00,,,0.00,0,Wunderground v.1.15,2013-01-27 06:30:00,
2013-01-27 01:36:00,23.1,14.8,30.50,WNW,284,3.0,6.0,70,0.00,,,0.00,0,Wunderground v.1.15,2013-01-27 06:36:00,
2013-01-27 01:41:00,23.1,14.4,30.50,NW,306,3.0,3.0,69,0.00,,,0.00,0,Wunderground v.1.15,2013-01-27 06:41:00,
2013-01-27 01:47:00,23.2,14.9,30.50,NW,324,3.0,4.0,70,0.00,,,0.00,0,Wunderground v.1.15,2013-01-27 06:47:00,
2013-01-27 01:52:00,23.2,14.5,30.50,WNW,291,4.0,8.0,69,0.00,,,0.00,0,Wunderground v.1.15,2013-01-27 06:52:00,
2013-01-27 01:57:00,23.2,14.9,30.51,NW,308,3.0,8.0,70,0.00,,,0.00,0,Wunderground v.1.15,2013-01-27 06:57:00,
2013-01-27 02:03:00,23.2,14.9,30.51,West,273,2.0,6.0,70,0.00,,,0.00,0,Wunderground v.1.15,2013-01-27 07:03:00,
2013-01-27 02:08:00,23.1,15.4,30.52,West,274,2.0,6.0,72,0.00,,,0.00,0,Wunderground v.1.15,2013-01-27 07:08:00,
2013-01-27 02:14:00,23.2,15.2,30.52,West,273,1.0,2.0,71,0.00,,,0.00,0,Wunderground v.1.15,2013-01-27 07:14:00,
2013-01-27 02:19:00,23.2,14.9,30.53,West,275,0.0,2.0,70,0.00,,,0.00,0,Wunderground v.1.15,2013-01-27 07:19:00,
2013-01-27 02:25:00,23.3,15.0,30.52,NW,309,1.0,4.0,70,0.00,,,0.00,0,Wunderground v.1.15,2013-01-27 07:25:00,
2013-01-27 02:30:00,23.3,15.0,30.52,NNE,22,2.0,2.0,70,0.00,,,0.00,0,Wunderground v.1.15,2013-01-27 07:30:00,
2013-01-27 02:35:00,23.1,14.4,30.52,North,360,2.0,3.0,69,0.00,,,0.00,0,Wunderground v.1.15,2013-01-27 07:35:00,
2013-01-27 02:41:00,23.0,14.7,30.51,NNE,21,2.0,3.0,70,0.00,,,0.00,0,Wunderground v.1.15,2013-01-27 07:41:00,
2013-01-27 02:46:00,22.9,14.9,30.51,East,88,2.0,7.0,71,0.00,,,0.00,0,Wunderground v.1.15,2013-01-27 07:46:00,
2013-01-27 02:52:00,22.8,14.8,30.52,NNE,26,3.0,3.0,71,0.00,,,0.00,0,Wunderground v.1.15,2013-01-27 07:52:00,
2013-01-27 02:57:00,22.8,14.8,30.52,NNE,12,4.0,6.0,71,0.00,,,0.00,0,Wunderground v.1.15,2013-01-27 07:57:00,
2013-01-27 03:03:00,22.7,14.7,30.52,North,5,4.0,5.0,71,0.00,,,0.00,0,Wunderground v.1.15,2013-01-27 08:03:00,
2013-01-27 03:08:00,22.8,14.8,30.52,NNE,32,4.0,5.0,71,0.00,,,0.00,0,Wunderground v.1.15,2013-01-27 08:08:00,
2013-01-27 03:13:00,22.7,14.7,30.52,North,11,5.0,7.0,71,0.00,,,0.00,0,Wunderground v.1.15,2013-01-27 08:13:00,
2013-01-27 03:19:00,22.7,14.7,30.52,NNE,12,5.0,7.0,71,0.00,,,0.00,0,Wunderground v.1.15,2013-01-27 08:19:00,
2013-01-27 03:24:00,22.7,14.4,30.52,NNW,343,4.0,5.0,70,0.00,,,0.00,0,Wunderground v.1.15,2013-01-27 08:24:00,
2013-01-27 03:29:00,22.7,14.4,30.51,North,355,3.0,5.0,70,0.00,,,0.00,0,Wunderground v.1.15,2013-01-27 08:29:00,
2013-01-27 03:34:00,22.7,14.7,30.51,NE,54,3.0,6.0,71,0.00,,,0.00,0,Wunderground v.1.15,2013-01-27 08:34:00,
2013-01-27 03:40:00,22.7,14.7,30.51,NE,34,4.0,4.0,71,0.00,,,0.00,0,Wunderground v.1.15,2013-01-27 08:40:00,
2013-01-27 03:45:00,22.7,14.7,30.51,North,10,2.0,4.0,71,0.00,,,0.00,0,Wunderground v.1.15,2013-01-27 08:45:00,
2013-01-27 03:51:00,22.6,15.6,30.51,NNE,26,1.0,1.0,74,0.00,,,0.00,0,Wunderground v.1.15,2013-01-27 08:51:00,
2013-01-27 03:56:00,22.6,15.6,30.51,NNE,26,1.0,1.0,74,0.00,,,0.00,0,Wunderground v.1.15,2013-01-27 08:56:00,
2013-01-27 04:02:00,22.7,15.0,30.51,NNE,24,1.0,1.0,72,0.00,,,0.00,0,Wunderground v.1.15,2013-01-27 09:02:00,
2013-01-27 04:07:00,22.7,15.0,30.51,NNE,24,1.0,2.0,72,0.00,,,0.00,0,Wunderground v.1.15,2013-01-27 09:07:00,
2013-01-27 04:12:00,22.7,14.7,30.51,NNE,24,1.0,1.0,71,0.00,,,0.00,0,Wunderground v.1.15,2013-01-27 09:12:00,
2013-01-27 04:18:00,22.8,15.8,30.51,NNE,23,0.0,1.0,74,0.00,,,0.00,0,Wunderground v.1.15,2013-01-27 09:18:00,
2013-01-27 04:23:00,22.8,15.4,30.52,NNE,24,0.0,0.0,73,0.00,,,0.00,0,Wunderground v.1.15,2013-01-27 09:23:00,
2013-01-27 04:28:00,22.7,15.3,30.51,NW,314,1.0,5.0,73,0.00,,,0.00,0,Wunderground v.1.15,2013-01-27 09:28:00,
2013-01-27 04:34:00,22.6,15.6,30.51,NW,316,2.0,2.0,74,0.00,,,0.00,0,Wunderground v.1.15,2013-01-27 09:34:00,
2013-01-27 04:39:00,22.5,15.1,30.51,NW,315,1.0,2.0,73,0.00,,,0.00,0,Wunderground v.1.15,2013-01-27 09:39:00,
2013-01-27 04:45:00,22.5,15.1,30.51,NW,315,0.0,2.0,73,0.00,,,0.00,0,Wunderground v.1.15,2013-01-27 09:45:00,
2013-01-27 04:50:00,22.4,15.1,30.51,NW,317,1.0,1.0,73,0.00,,,0.00,0,Wunderground v.1.15,2013-01-27 09:50:00,
2013-01-27 04:55:00,22.4,15.4,30.51,NW,317,1.0,2.0,74,0.00,,,0.00,0,Wunderground v.1.15,2013-01-27 09:55:00,
2013-01-27 05:00:00,22.3,15.3,30.52,NW,315,1.0,1.0,74,0.00,,,0.00,0,Wunderground v.1.15,2013-01-27 10:00:00,
2013-01-27 05:06:00,22.4,16.0,30.52,NW,316,1.0,2.0,76,0.00,,,0.00,0,Wunderground v.1.15,2013-01-27 10:06:00,
2013-01-27 05:12:00,22.3,15.9,30.52,NNW,331,2.0,3.0,76,0.00,,,0.00,0,Wunderground v.1.15,2013-01-27 10:12:00,
2013-01-27 05:17:00,22.4,16.3,30.52,NNW,340,1.0,3.0,77,0.00,,,0.00,0,Wunderground v.1.15,2013-01-27 10:17:00,
2013-01-27 05:22:00,22.4,16.3,30.52,North,360,2.0,4.0,77,0.00,,,0.00,0,Wunderground v.1.15,2013-01-27 10:22:00,
2013-01-27 05:28:00,22.4,15.7,30.52,North,5,2.0,4.0,75,0.00,,,0.00,0,Wunderground v.1.15,2013-01-27 10:28:00,
2013-01-27 05:33:00,22.4,16.3,30.52,North,5,1.0,2.0,77,0.00,,,0.00,0,Wunderground v.1.15,2013-01-27 10:33:00,
2013-01-27 05:38:00,22.3,16.5,30.52,North,5,0.0,2.0,78,0.00,,,0.00,0,Wunderground v.1.15,2013-01-27 10:38:00,
2013-01-27 05:44:00,22.0,16.5,30.52,North,9,0.0,0.0,79,0.00,,,0.00,0,Wunderground v.1.15,2013-01-27 10:44:00,
2013-01-27 05:49:00,21.7,16.2,30.53,North,5,0.0,0.0,79,0.00,,,0.00,0,Wunderground v.1.15,2013-01-27 10:49:00,
2013-01-27 05:54:00,21.3,16.1,30.53,North,5,0.0,2.0,80,0.00,,,0.00,0,Wunderground v.1.15,2013-01-27 10:54:00,
2013-01-27 06:00:00,21.0,16.1,30.53,ENE,57,2.0,2.0,81,0.00,,,0.00,0,Wunderground v.1.15,2013-01-27 11:00:00,
2013-01-27 06:06:00,20.9,16.5,30.54,ENE,59,2.0,2.0,83,0.00,,,0.00,0,Wunderground v.1.15,2013-01-27 11:06:00,
2013-01-27 06:11:00,20.7,16.4,30.54,ENE,78,2.0,3.0,83,0.00,,,0.00,0,Wunderground v.1.15,2013-01-27 11:11:00,
2013-01-27 06:16:00,20.6,16.5,30.54,East,80,2.0,3.0,84,0.00,,,0.00,0,Wunderground v.1.15,2013-01-27 11:16:00,
2013-01-27 06:21:00,20.5,16.7,30.54,ENE,78,1.0,1.0,85,0.00,,,0.00,0,Wunderground v.1.15,2013-01-27 11:21:00,
2013-01-27 06:27:00,20.5,16.4,30.54,ENE,76,1.0,3.0,84,0.00,,,0.00,0,Wunderground v.1.15,2013-01-27 11:27:00,
2013-01-27 06:32:00,20.6,16.5,30.54,ENE,77,1.0,1.0,84,0.00,,,0.00,0,Wunderground v.1.15,2013-01-27 11:32:00,
2013-01-27 06:37:00,20.5,16.4,30.54,East,80,1.0,2.0,84,0.00,,,0.00,0,Wunderground v.1.15,2013-01-27 11:37:00,
2013-01-27 06:43:00,20.3,16.5,30.54,WNW,296,2.0,4.0,85,0.00,,,0.00,0,Wunderground v.1.15,2013-01-27 11:43:00,
2013-01-27 06:48:00,20.1,16.3,30.54,WNW,294,3.0,4.0,85,0.00,,,0.00,0,Wunderground v.1.15,2013-01-27 11:48:00,
2013-01-27 06:53:00,19.9,16.1,30.55,WNW,294,3.0,3.0,85,0.00,,,0.00,0,Wunderground v.1.15,2013-01-27 11:53:00,
2013-01-27 06:59:00,19.8,16.0,30.55,WNW,296,2.0,4.0,85,0.00,,,0.00,0,Wunderground v.1.15,2013-01-27 11:59:00,
2013-01-27 07:05:00,19.6,16.1,30.55,WNW,294,3.0,3.0,86,0.00,,,0.00,0,Wunderground v.1.15,2013-01-27 12:05:00,
2013-01-27 07:10:00,19.3,15.8,30.55,WNW,296,3.0,3.0,86,0.00,,,0.00,0,Wunderground v.1.15,2013-01-27 12:10:00,
2013-01-27 07:15:00,19.2,16.0,30.56,WNW,297,2.0,4.0,87,0.00,,,0.00,0,Wunderground v.1.15,2013-01-27 12:15:00,
2013-01-27 07:21:00,18.8,15.6,30.56,WNW,296,3.0,3.0,87,0.00,,,0.00,0,Wunderground v.1.15,2013-01-27 12:21:00,
2013-01-27 07:26:00,18.6,15.4,30.56,WNW,300,2.0,4.0,87,0.00,,,0.00,5,Wunderground v.1.15,2013-01-27 12:26:00,
2013-01-27 07:31:00,18.5,15.3,30.57,NW,311,2.0,5.0,87,0.00,,,0.00,9,Wunderground v.1.15,2013-01-27 12:31:00,
2013-01-27 07:37:00,18.3,15.1,30.58,NW,313,4.0,5.0,87,0.00,,,0.00,12,Wunderground v.1.15,2013-01-27 12:37:00,
2013-01-27 07:42:00,18.3,15.3,30.58,NW,319,3.0,3.0,88,0.00,,,0.00,16,Wunderground v.1.15,2013-01-27 12:42:00,
2013-01-27 07:47:00,18.3,15.3,30.57,North,360,2.0,3.0,88,0.00,,,0.00,35,Wunderground v.1.15,2013-01-27 12:47:00,
2013-01-27 07:53:00,18.3,15.1,30.58,NW,321,0.0,1.0,87,0.00,,,0.00,35,Wunderground v.1.15,2013-01-27 12:53:00,
2013-01-27 07:58:00,18.2,15.0,30.58,NW,321,0.0,1.0,87,0.00,,,0.00,23,Wunderground v.1.15,2013-01-27 12:58:00,
2013-01-27 08:04:00,18.1,14.9,30.58,NW,320,0.0,1.0,87,0.00,,,0.00,26,Wunderground v.1.15,2013-01-27 13:04:00,
2013-01-27 08:09:00,18.0,14.8,30.59,North,360,0.0,1.0,87,0.00,,,0.00,33,Wunderground v.1.15,2013-01-27 13:09:00,
2013-01-27 08:14:00,18.0,14.8,30.59,North,360,0.0,1.0,87,0.00,,,0.00,83,Wunderground v.1.15,2013-01-27 13:14:00,
2013-01-27 08:20:00,18.1,15.1,30.59,North,360,0.0,0.0,88,0.00,,,0.00,127,Wunderground v.1.15,2013-01-27 13:20:00,
2013-01-27 08:25:00,18.5,15.5,30.59,NW,321,0.0,0.0,88,0.00,,,0.00,165,Wunderground v.1.15,2013-01-27 13:25:00,
2013-01-27 08:31:00,19.2,16.2,30.59,NW,321,0.0,0.0,88,0.00,,,0.00,104,Wunderground v.1.15,2013-01-27 13:31:00,
2013-01-27 08:36:00,19.9,16.4,30.59,NNW,339,0.0,3.0,86,0.00,,,0.00,90,Wunderground v.1.15,2013-01-27 13:36:00,
2013-01-27 08:41:00,20.8,16.7,30.59,North,360,0.0,0.0,84,0.00,,,0.00,181,Wunderground v.1.15,2013-01-27 13:41:00,
2013-01-27 08:47:00,21.6,16.7,30.59,NNW,340,0.0,2.0,81,0.00,,,0.00,213,Wunderground v.1.15,2013-01-27 13:47:00,
2013-01-27 08:52:00,21.8,16.6,30.60,NNW,340,1.0,2.0,80,0.00,,,0.00,220,Wunderground v.1.15,2013-01-27 13:52:00,
2013-01-27 08:57:00,22.2,16.7,30.60,NNW,340,1.0,2.0,79,0.00,,,0.00,218,Wunderground v.1.15,2013-01-27 13:57:00,
2013-01-27 09:03:00,22.4,16.6,30.60,ENE,62,1.0,3.0,78,0.00,,,0.00,265,Wunderground v.1.15,2013-01-27 14:03:00,
2013-01-27 09:09:00,21.9,16.4,30.60,ENE,64,2.0,3.0,79,0.00,,,0.00,271,Wunderground v.1.15,2013-01-27 14:09:00,
2013-01-27 09:14:00,21.7,16.2,30.60,ENE,64,2.0,3.0,79,0.00,,,0.00,294,Wunderground v.1.15,2013-01-27 14:14:00,
2013-01-27 09:20:00,21.7,16.5,30.59,ENE,62,2.0,4.0,80,0.00,,,0.00,285,Wunderground v.1.15,2013-01-27 14:20:00,
2013-01-27 09:25:00,21.7,16.5,30.59,ENE,61,3.0,4.0,80,0.00,,,0.00,315,Wunderground v.1.15,2013-01-27 14:25:00,
2013-01-27 09:30:00,21.7,16.5,30.59,ENE,61,3.0,3.0,80,0.00,,,0.00,220,Wunderground v.1.15,2013-01-27 14:30:00,
2013-01-27 09:36:00,21.9,16.7,30.59,ENE,71,3.0,3.0,80,0.00,,,0.00,327,Wunderground v.1.15,2013-01-27 14:36:00,
2013-01-27 09:41:00,22.2,17.0,30.60,NE,53,3.0,3.0,80,0.00,,,0.00,334,Wunderground v.1.15,2013-01-27 14:41:00,
2013-01-27 09:46:00,22.4,17.2,30.60,NE,54,3.0,3.0,80,0.00,,,0.00,339,Wunderground v.1.15,2013-01-27 14:46:00,
2013-01-27 09:52:00,22.7,17.2,30.60,NE,55,3.0,3.0,79,0.00,,,0.00,378,Wunderground v.1.15,2013-01-27 14:52:00,
2013-01-27 09:57:00,23.1,17.3,30.60,ENE,57,2.0,3.0,78,0.00,,,0.00,404,Wunderground v.1.15,2013-01-27 14:57:00,
2013-01-27 10:03:00,23.2,17.4,30.60,NE,55,2.0,2.0,78,0.00,,,0.00,378,Wunderground v.1.15,2013-01-27 15:03:00,
2013-01-27 10:08:00,23.5,17.3,30.61,NE,55,2.0,2.0,77,0.00,,,0.00,374,Wunderground v.1.15,2013-01-27 15:08:00,
2013-01-27 10:14:00,23.8,17.6,30.61,NE,56,0.0,1.0,77,0.00,,,0.00,309,Wunderground v.1.15,2013-01-27 15:14:00,
2013-01-27 10:19:00,24.4,17.6,30.61,NE,55,0.0,1.0,75,0.00,,,0.00,318,Wunderground v.1.15,2013-01-27 15:19:00,
2013-01-27 10:24:00,24.7,17.6,30.61,NE,54,0.0,0.0,74,0.00,,,0.00,429,Wunderground v.1.15,2013-01-27 15:24:00,
2013-01-27 10:30:00,24.9,17.5,30.61,NE,55,0.0,2.0,73,0.00,,,0.00,469,Wunderground v.1.15,2013-01-27 15:30:00,
2013-01-27 10:35:00,25.2,17.8,30.60,SSE,148,1.0,2.0,73,0.00,,,0.00,450,Wunderground v.1.15,2013-01-27 15:35:00,
2013-01-27 10:41:00,25.3,17.5,30.60,SSE,157,1.0,1.0,72,0.00,,,0.00,483,Wunderground v.1.15,2013-01-27 15:41:00,
2013-01-27 10:46:00,25.5,17.7,30.61,South,173,1.0,4.0,72,0.00,,,0.00,462,Wunderground v.1.15,2013-01-27 15:46:00,
2013-01-27 10:51:00,25.8,18.3,30.60,SSE,161,2.0,4.0,73,0.00,,,0.00,483,Wunderground v.1.15,2013-01-27 15:51:00,
2013-01-27 10:56:00,26.0,18.2,30.60,South,180,2.0,4.0,72,0.00,,,0.00,483,Wunderground v.1.15,2013-01-27 15:56:00,
2013-01-27 11:02:00,26.1,18.0,30.60,South,178,1.0,3.0,71,0.00,,,0.00,452,Wunderground v.1.15,2013-01-27 16:02:00,
2013-01-27 11:08:00,26.3,17.8,30.60,South,180,1.0,4.0,70,0.00,,,0.00,496,Wunderground v.1.15,2013-01-27 16:08:00,
2013-01-27 11:13:00,26.6,17.8,30.60,South,176,2.0,2.0,69,0.00,,,0.00,464,Wunderground v.1.15,2013-01-27 16:13:00,
2013-01-27 11:19:00,27.0,18.8,30.59,South,176,1.0,2.0,71,0.00,,,0.00,497,Wunderground v.1.15,2013-01-27 16:19:00,
2013-01-27 11:24:00,27.4,18.6,30.59,South,177,1.0,3.0,69,0.00,,,0.00,559,Wunderground v.1.15,2013-01-27 16:24:00,
2013-01-27 11:29:00,27.7,18.8,30.59,South,184,1.0,3.0,69,0.00,,,0.00,575,Wunderground v.1.15,2013-01-27 16:29:00,
2013-01-27 11:34:00,27.8,18.9,30.58,ENE,75,1.0,3.0,69,0.00,,,0.00,490,Wunderground v.1.15,2013-01-27 16:34:00,
2013-01-27 11:40:00,27.9,19.0,30.58,SSE,167,2.0,2.0,69,0.00,,,0.00,455,Wunderground v.1.15,2013-01-27 16:40:00,
2013-01-27 11:45:00,28.1,18.9,30.58,ESE,114,3.0,4.0,68,0.00,,,0.00,563,Wunderground v.1.15,2013-01-27 16:45:00,
2013-01-27 11:51:00,28.6,19.0,30.57,SSE,159,2.0,2.0,67,0.00,,,0.00,686,Wunderground v.1.15,2013-01-27 16:51:00,
2013-01-27 11:56:00,28.3,18.7,30.57,East,96,1.0,2.0,67,0.00,,,0.00,297,Wunderground v.1.15,2013-01-27 16:56:00,
2013-01-27 12:02:00,28.0,19.1,30.57,SSE,162,1.0,1.0,69,0.00,,,0.00,413,Wunderground v.1.15,2013-01-27 17:02:00,
2013-01-27 12:07:00,28.4,18.8,30.56,WSW,244,1.0,2.0,67,0.00,,,0.00,434,Wunderground v.1.15,2013-01-27 17:07:00,
2013-01-27 12:12:00,28.7,19.5,30.56,SSE,151,1.0,2.0,68,0.00,,,0.00,357,Wunderground v.1.15,2013-01-27 17:12:00,
2013-01-27 12:18:00,29.1,19.5,30.55,South,188,3.0,7.0,67,0.00,,,0.00,538,Wunderground v.1.15,2013-01-27 17:18:00,
2013-01-27 12:23:00,29.1,19.8,30.55,South,186,3.0,6.0,68,0.00,,,0.00,466,Wunderground v.1.15,2013-01-27 17:23:00,
2013-01-27 12:28:00,29.1,19.5,30.55,SE,146,4.0,6.0,67,0.00,,,0.00,610,Wunderground v.1.15,2013-01-27 17:28:00,
2013-01-27 12:34:00,29.5,20.2,30.55,South,171,3.0,4.0,68,0.00,,,0.00,584,Wunderground v.1.15,2013-01-27 17:34:00,
2013-01-27 12:39:00,30.3,20.6,30.55,South,188,4.0,10.0,67,0.00,,,0.00,575,Wunderground v.1.15,2013-01-27 17:39:00,
2013-01-27 12:44:00,30.7,20.0,30.55,North,360,5.0,8.0,64,0.00,,,0.00,570,Wunderground v.1.15,2013-01-27 17:44:00,
2013-01-27 12:50:00,31.0,19.9,30.54,SW,217,4.0,5.0,63,0.00,,,0.00,538,Wunderground v.1.15,2013-01-27 17:50:00,
2013-01-27 12:55:00,31.0,20.6,30.54,South,174,3.0,6.0,65,0.00,,,0.00,406,Wunderground v.1.15,2013-01-27 17:55:00,
2013-01-27 13:00:00,31.0,20.2,30.54,SSW,199,4.0,4.0,64,0.00,,,0.00,515,Wunderground v.1.15,2013-01-27 18:00:00,
2013-01-27 13:06:00,31.2,20.4,30.54,SSW,196,4.0,4.0,64,0.00,,,0.00,568,Wunderground v.1.15,2013-01-27 18:06:00,
2013-01-27 13:11:00,31.6,20.4,30.54,West,266,3.0,3.0,63,0.00,,,0.00,573,Wunderground v.1.15,2013-01-27 18:11:00,
2013-01-27 13:16:00,32.1,20.2,30.53,SW,214,2.0,3.0,61,0.00,,,0.00,524,Wunderground v.1.15,2013-01-27 18:16:00,
2013-01-27 13:21:00,32.0,20.4,30.53,WSW,258,2.0,2.0,62,0.00,,,0.00,520,Wunderground v.1.15,2013-01-27 18:21:00,
2013-01-27 13:27:00,32.1,20.5,30.52,SW,225,2.0,4.0,62,0.00,,,0.00,515,Wunderground v.1.15,2013-01-27 18:27:00,
2013-01-27 13:32:00,32.2,20.6,30.52,NW,307,3.0,5.0,62,0.00,,,0.00,561,Wunderground v.1.15,2013-01-27 18:32:00,
2013-01-27 13:37:00,31.9,20.7,30.52,SW,218,2.0,5.0,63,0.00,,,0.00,529,Wunderground v.1.15,2013-01-27 18:37:00,
2013-01-27 13:43:00,31.8,20.3,30.52,West,272,1.0,2.0,62,0.00,,,0.00,510,Wunderground v.1.15,2013-01-27 18:43:00,
2013-01-27 13:48:00,31.8,20.3,30.52,SE,132,2.0,2.0,62,0.00,,,0.00,515,Wunderground v.1.15,2013-01-27 18:48:00,
2013-01-27 13:53:00,31.8,20.6,30.52,SSW,196,1.0,5.0,63,0.00,,,0.00,341,Wunderground v.1.15,2013-01-27 18:53:00,
2013-01-27 13:59:00,31.8,20.3,30.51,West,269,3.0,5.0,62,0.00,,,0.00,163,Wunderground v.1.15,2013-01-27 18:59:00,
2013-01-27 14:05:00,31.7,20.2,30.51,SW,216,2.0,3.0,62,0.00,,,0.00,241,Wunderground v.1.15,2013-01-27 19:05:00,
2013-01-27 14:10:00,31.7,20.2,30.51,South,186,1.0,5.0,62,0.00,,,0.00,464,Wunderground v.1.15,2013-01-27 19:10:00,
2013-01-27 14:15:00,32.0,20.8,30.50,SSE,150,2.0,5.0,63,0.00,,,0.00,411,Wunderground v.1.15,2013-01-27 19:15:00,
2013-01-27 14:21:00,31.8,21.0,30.50,East,91,3.0,3.0,64,0.00,,,0.00,234,Wunderground v.1.15,2013-01-27 19:21:00,
2013-01-27 14:26:00,31.6,20.8,30.50,North,11,2.0,3.0,64,0.00,,,0.00,432,Wunderground v.1.15,2013-01-27 19:26:00,
2013-01-27 14:31:00,31.6,20.8,30.50,NE,55,2.0,2.0,64,0.00,,,0.00,313,Wunderground v.1.15,2013-01-27 19:31:00,
2013-01-27 14:37:00,31.9,21.1,30.50,NNE,26,2.0,3.0,64,0.00,,,0.00,287,Wunderground v.1.15,2013-01-27 19:37:00,
2013-01-27 14:42:00,32.0,21.6,30.50,NE,56,3.0,4.0,65,0.00,,,0.00,269,Wunderground v.1.15,2013-01-27 19:42:00,
2013-01-27 14:47:00,32.0,21.2,30.50,ENE,76,3.0,4.0,64,0.00,,,0.00,262,Wunderground v.1.15,2013-01-27 19:47:00,
2013-01-27 14:53:00,32.3,21.8,30.50,ENE,70,3.0,4.0,65,0.00,,,0.00,301,Wunderground v.1.15,2013-01-27 19:53:00,
2013-01-27 14:58:00,32.3,21.8,30.50,ENE,71,4.0,5.0,65,0.00,,,0.00,352,Wunderground v.1.15,2013-01-27 19:58:00,
2013-01-27 15:04:00,32.4,21.2,30.50,ENE,60,3.0,3.0,63,0.00,,,0.00,276,Wunderground v.1.15,2013-01-27 20:04:00,
2013-01-27 15:09:00,32.5,21.7,30.50,ENE,69,2.0,3.0,64,0.00,,,0.00,183,Wunderground v.1.15,2013-01-27 20:09:00,
2013-01-27 15:15:00,32.3,21.5,30.50,East,86,2.0,3.0,64,0.00,,,0.00,141,Wunderground v.1.15,2013-01-27 20:15:00,
2013-01-27 15:20:00,32.3,21.5,30.50,NNE,30,3.0,3.0,64,0.00,,,0.00,155,Wunderground v.1.15,2013-01-27 20:20:00,
2013-01-27 15:25:00,32.3,20.7,30.50,ENE,63,3.0,3.0,62,0.00,,,0.00,121,Wunderground v.1.15,2013-01-27 20:25:00,
2013-01-27 15:30:00,32.3,21.8,30.50,ENE,63,3.0,3.0,65,0.00,,,0.00,239,Wunderground v.1.15,2013-01-27 20:30:00,
2013-01-27 15:36:00,32.4,21.6,30.50,NE,49,2.0,4.0,64,0.00,,,0.00,160,Wunderground v.1.15,2013-01-27 20:36:00,
2013-01-27 15:41:00,32.4,21.2,30.49,NE,51,2.0,2.0,63,0.00,,,0.00,132,Wunderground v.1.15,2013-01-27 20:41:00,
2013-01-27 15:47:00,32.4,21.6,30.49,NE,52,1.0,2.0,64,0.00,,,0.00,95,Wunderground v.1.15,2013-01-27 20:47:00,
2013-01-27 15:52:00,32.4,21.2,30.49,NE,53,1.0,1.0,63,0.00,,,0.00,95,Wunderground v.1.15,2013-01-27 20:52:00,
2013-01-27 15:57:00,32.3,21.5,30.49,NE,51,1.0,2.0,64,0.00,,,0.00,83,Wunderground v.1.15,2013-01-27 20:57:00,
2013-01-27 16:03:00,32.1,21.7,30.49,NE,55,2.0,4.0,65,0.00,,,0.00,88,Wunderground v.1.15,2013-01-27 21:03:00,
2013-01-27 16:08:00,31.9,21.8,30.49,ENE,59,3.0,5.0,66,0.00,,,0.00,95,Wunderground v.1.15,2013-01-27 21:08:00,
2013-01-27 16:14:00,31.8,21.4,30.49,NE,38,3.0,3.0,65,0.00,,,0.00,81,Wunderground v.1.15,2013-01-27 21:14:00,
2013-01-27 16:19:00,31.8,21.7,30.49,ENE,61,3.0,5.0,66,0.00,,,0.00,83,Wunderground v.1.15,2013-01-27 21:19:00,
2013-01-27 16:24:00,31.8,21.7,30.49,NE,54,3.0,4.0,66,0.00,,,0.00,93,Wunderground v.1.15,2013-01-27 21:24:00,
2013-01-27 16:30:00,31.8,21.7,30.49,NE,46,2.0,2.0,66,0.00,,,0.00,90,Wunderground v.1.15,2013-01-27 21:30:00,
2013-01-27 16:35:00,31.8,22.1,30.49,NE,47,1.0,2.0,67,0.00,,,0.00,86,Wunderground v.1.15,2013-01-27 21:35:00,
2013-01-27 16:41:00,31.8,21.7,30.50,NNE,29,1.0,3.0,66,0.00,,,0.00,60,Wunderground v.1.15,2013-01-27 21:41:00,
2013-01-27 16:46:00,31.7,21.3,30.49,NNE,14,2.0,4.0,65,0.00,,,0.00,58,Wunderground v.1.15,2013-01-27 21:46:00,
2013-01-27 16:51:00,31.6,21.2,30.49,NNE,25,3.0,4.0,65,0.00,,,0.00,44,Wunderground v.1.15,2013-01-27 21:51:00,
2013-01-27 16:57:00,31.6,21.9,30.50,NNE,26,2.0,4.0,67,0.00,,,0.00,33,Wunderground v.1.15,2013-01-27 21:57:00,
2013-01-27 17:03:00,31.4,21.7,30.50,NNE,26,1.0,1.0,67,0.00,,,0.00,19,Wunderground v.1.15,2013-01-27 22:03:00,
2013-01-27 17:08:00,31.2,21.9,30.49,NNE,26,1.0,2.0,68,0.00,,,0.00,12,Wunderground v.1.15,2013-01-27 22:08:00,
2013-01-27 17:13:00,31.0,21.7,30.49,NNE,26,2.0,2.0,68,0.00,,,0.00,9,Wunderground v.1.15,2013-01-27 22:13:00,
2013-01-27 17:19:00,30.8,22.5,30.49,NNE,26,2.0,3.0,71,0.00,,,0.00,7,Wunderground v.1.15,2013-01-27 22:19:00,
2013-01-27 17:24:00,30.6,22.3,30.49,NE,36,1.0,3.0,71,0.00,,,0.00,5,Wunderground v.1.15,2013-01-27 22:24:00,
2013-01-27 17:29:00,30.4,22.4,30.49,NE,36,1.0,3.0,72,0.00,,,0.00,0,Wunderground v.1.15,2013-01-27 22:29:00,
2013-01-27 17:35:00,30.0,22.7,30.49,NE,36,1.0,2.0,74,0.00,,,0.00,0,Wunderground v.1.15,2013-01-27 22:35:00,
2013-01-27 17:40:00,29.7,23.1,30.49,NE,36,1.0,2.0,76,0.00,,,0.00,0,Wunderground v.1.15,2013-01-27 22:40:00,
2013-01-27 17:46:00,29.3,23.0,30.49,NE,36,1.0,3.0,77,0.00,,,0.00,0,Wunderground v.1.15,2013-01-27 22:46:00,
2013-01-27 17:51:00,28.9,23.2,30.49,NE,36,1.0,1.0,79,0.00,,,0.00,0,Wunderground v.1.15,2013-01-27 22:51:00,
2013-01-27 17:56:00,28.6,23.8,30.49,NE,37,0.0,1.0,82,0.00,,,0.00,0,Wunderground v.1.15,2013-01-27 22:56:00,
2013-01-27 18:02:00,28.3,23.8,30.49,NE,37,0.0,1.0,83,0.00,,,0.00,0,Wunderground v.1.15,2013-01-27 23:02:00,
2013-01-27 18:07:00,28.2,24.0,30.49,NE,37,1.0,2.0,84,0.00,,,0.00,0,Wunderground v.1.15,2013-01-27 23:07:00,
2013-01-27 18:13:00,28.1,24.2,30.49,NE,36,2.0,2.0,85,0.00,,,0.00,0,Wunderground v.1.15,2013-01-27 23:13:00,
2013-01-27 18:18:00,28.0,24.1,30.49,NE,37,2.0,3.0,85,0.00,,,0.00,0,Wunderground v.1.15,2013-01-27 23:18:00,
2013-01-27 18:23:00,28.0,24.1,30.49,NE,36,2.0,3.0,85,0.00,,,0.00,0,Wunderground v.1.15,2013-01-27 23:23:00,
2013-01-27 18:29:00,27.9,24.0,30.49,NE,36,2.0,3.0,85,0.00,,,0.00,0,Wunderground v.1.15,2013-01-27 23:29:00,
2013-01-27 18:34:00,27.8,23.9,30.49,NE,38,2.0,3.0,85,0.00,,,0.00,0,Wunderground v.1.15,2013-01-27 23:34:00,
2013-01-27 18:40:00,27.7,23.8,30.49,NE,36,2.0,2.0,85,0.00,,,0.00,0,Wunderground v.1.15,2013-01-27 23:40:00,
2013-01-27 18:45:00,27.5,23.6,30.49,NE,36,2.0,2.0,85,0.00,,,0.00,0,Wunderground v.1.15,2013-01-27 23:45:00,
2013-01-27 18:50:00,27.3,23.4,30.49,NE,38,1.0,1.0,85,0.00,,,0.00,0,Wunderground v.1.15,2013-01-27 23:50:00,
2013-01-27 18:55:00,27.1,23.5,30.49,NE,36,0.0,1.0,86,0.00,,,0.00,0,Wunderground v.1.15,2013-01-27 23:55:00,
2013-01-27 19:00:00,26.8,23.2,30.48,NE,34,0.0,0.0,86,0.00,,,0.00,0,Wunderground v.1.15,2013-01-28 00:00:00,
2013-01-27 19:06:00,26.7,23.4,30.48,NE,36,1.0,3.0,87,0.00,,,0.00,0,Wunderground v.1.15,2013-01-28 00:06:00,
2013-01-27 19:11:00,26.7,23.4,30.48,NE,36,2.0,2.0,87,0.00,,,0.00,0,Wunderground v.1.15,2013-01-28 00:11:00,
2013-01-27 19:16:00,26.8,23.7,30.48,NE,36,2.0,2.0,88,0.00,,,0.00,0,Wunderground v.1.15,2013-01-28 00:16:00,
2013-01-27 19:21:00,26.8,23.4,30.48,NE,36,1.0,1.0,87,0.00,,,0.00,0,Wunderground v.1.15,2013-01-28 00:21:00,
2013-01-27 19:27:00,26.9,23.8,30.47,NE,38,0.0,1.0,88,0.00,,,0.00,0,Wunderground v.1.15,2013-01-28 00:27:00,
2013-01-27 19:32:00,27.0,23.6,30.48,NE,35,0.0,0.0,87,0.00,,,0.00,0,Wunderground v.1.15,2013-01-28 00:32:00,
2013-01-27 19:37:00,27.1,23.5,30.48,NE,36,0.0,1.0,86,0.00,,,0.00,0,Wunderground v.1.15,2013-01-28 00:37:00,
2013-01-27 19:43:00,27.2,23.6,30.48,NE,36,0.0,0.0,86,0.00,,,0.00,0,Wunderground v.1.15,2013-01-28 00:43:00,
2013-01-27 19:48:00,27.4,23.8,30.48,NE,34,0.0,0.0,86,0.00,,,0.00,0,Wunderground v.1.15,2013-01-28 00:48:00,
2013-01-27 19:53:00,27.4,23.5,30.48,NE,36,0.0,0.0,85,0.00,,,0.00,0,Wunderground v.1.15,2013-01-28 00:53:00,
2013-01-27 19:59:00,27.4,23.5,30.48,NE,37,0.0,0.0,85,0.00,,,0.00,0,Wunderground v.1.15,2013-01-28 00:59:00,
2013-01-27 20:05:00,27.3,23.4,30.48,NE,36,0.0,0.0,85,0.00,,,0.00,0,Wunderground v.1.15,2013-01-28 01:05:00,
2013-01-27 20:10:00,27.3,23.9,30.47,NE,36,0.0,0.0,87,0.00,,,0.00,0,Wunderground v.1.15,2013-01-28 01:10:00,
2013-01-27 20:15:00,27.3,23.9,30.47,NE,37,0.0,0.0,87,0.00,,,0.00,0,Wunderground v.1.15,2013-01-28 01:15:00,
2013-01-27 20:20:00,27.4,24.0,30.48,NE,36,0.0,0.0,87,0.00,,,0.00,0,Wunderground v.1.15,2013-01-28 01:20:00,
2013-01-27 20:26:00,27.3,23.7,30.48,NE,34,0.0,0.0,86,0.00,,,0.00,0,Wunderground v.1.15,2013-01-28 01:26:00,
2013-01-27 20:31:00,27.4,23.8,30.48,NE,36,0.0,0.0,86,0.00,,,0.00,0,Wunderground v.1.15,2013-01-28 01:31:00,
2013-01-27 20:37:00,27.5,23.9,30.49,NE,36,0.0,0.0,86,0.00,,,0.00,0,Wunderground v.1.15,2013-01-28 01:37:00,
2013-01-27 20:42:00,27.5,23.9,30.49,NE,36,0.0,0.0,86,0.00,,,0.00,0,Wunderground v.1.15,2013-01-28 01:42:00,
2013-01-27 20:48:00,27.5,23.6,30.48,NE,36,0.0,0.0,85,0.00,,,0.00,0,Wunderground v.1.15,2013-01-28 01:48:00,
2013-01-27 20:53:00,27.7,23.8,30.49,NE,38,0.0,0.0,85,0.00,,,0.00,0,Wunderground v.1.15,2013-01-28 01:53:00,
2013-01-27 20:58:00,27.7,23.5,30.48,NE,40,0.0,0.0,84,0.00,,,0.00,0,Wunderground v.1.15,2013-01-28 01:58:00,
2013-01-27 21:04:00,27.9,23.7,30.48,NE,36,0.0,0.0,84,0.00,,,0.00,0,Wunderground v.1.15,2013-01-28 02:04:00,
2013-01-27 21:10:00,28.1,24.2,30.47,NE,36,0.0,0.0,85,0.00,,,0.00,0,Wunderground v.1.15,2013-01-28 02:10:00,
2013-01-27 21:15:00,28.2,24.0,30.47,NE,34,0.0,0.0,84,0.00,,,0.00,0,Wunderground v.1.15,2013-01-28 02:15:00,
2013-01-27 21:20:00,28.4,24.5,30.47,NE,35,0.0,0.0,85,0.00,,,0.00,0,Wunderground v.1.15,2013-01-28 02:20:00,
2013-01-27 21:26:00,28.5,24.3,30.47,NE,36,0.0,0.0,84,0.00,,,0.00,0,Wunderground v.1.15,2013-01-28 02:26:00,
2013-01-27 21:31:00,28.6,24.4,30.48,NE,37,0.0,0.0,84,0.00,,,0.00,0,Wunderground v.1.15,2013-01-28 02:31:00,
2013-01-27 21:36:00,28.7,24.2,30.47,NE,36,0.0,0.0,83,0.00,,,0.00,0,Wunderground v.1.15,2013-01-28 02:36:00,
2013-01-27 21:42:00,28.9,24.4,30.48,NE,36,0.0,0.0,83,0.00,,,0.00,0,Wunderground v.1.15,2013-01-28 02:42:00,
2013-01-27 21:47:00,29.0,24.5,30.47,NE,36,0.0,0.0,83,0.00,,,0.00,0,Wunderground v.1.15,2013-01-28 02:47:00,
2013-01-27 21:53:00,29.1,24.6,30.47,NE,36,0.0,0.0,83,0.00,,,0.00,0,Wunderground v.1.15,2013-01-28 02:53:00,
2013-01-27 21:58:00,29.2,24.7,30.47,NE,36,0.0,0.0,83,0.00,,,0.00,0,Wunderground v.1.15,2013-01-28 02:58:00,
2013-01-27 22:04:00,29.3,24.5,30.48,NE,38,1.0,2.0,82,0.00,,,0.00,0,Wunderground v.1.15,2013-01-28 03:04:00,
2013-01-27 22:09:00,29.3,24.5,30.47,NE,37,1.0,4.0,82,0.00,,,0.00,0,Wunderground v.1.15,2013-01-28 03:09:00,
2013-01-27 22:15:00,29.4,24.6,30.47,NE,36,1.0,2.0,82,0.00,,,0.00,0,Wunderground v.1.15,2013-01-28 03:15:00,
2013-01-27 22:20:00,29.3,23.3,30.47,NE,36,0.0,0.0,78,0.00,,,0.00,0,Wunderground v.1.15,2013-01-28 03:20:00,
2013-01-27 22:25:00,29.4,23.7,30.47,NE,36,1.0,2.0,79,0.00,,,0.00,0,Wunderground v.1.15,2013-01-28 03:25:00,
2013-01-27 22:31:00,29.2,23.8,30.47,NE,36,1.0,1.0,80,0.00,,,0.00,0,Wunderground v.1.15,2013-01-28 03:31:00,
2013-01-27 22:36:00,29.0,23.9,30.47,NE,36,1.0,3.0,81,0.00,,,0.00,0,Wunderground v.1.15,2013-01-28 03:36:00,
2013-01-27 22:42:00,29.0,24.2,30.47,NE,34,0.0,0.0,82,0.00,,,0.00,0,Wunderground v.1.15,2013-01-28 03:42:00,
2013-01-27 22:47:00,29.0,24.5,30.48,NE,36,1.0,2.0,83,0.00,,,0.00,0,Wunderground v.1.15,2013-01-28 03:47:00,
2013-01-27 22:52:00,29.1,23.7,30.48,NE,36,1.0,2.0,80,0.00,,,0.00,0,Wunderground v.1.15,2013-01-28 03:52:00,
2013-01-27 22:57:00,29.1,23.4,30.48,NE,37,2.0,3.0,79,0.00,,,0.00,0,Wunderground v.1.15,2013-01-28 03:57:00,
2013-01-27 23:03:00,29.1,23.4,30.47,NE,38,2.0,4.0,79,0.00,,,0.00,0,Wunderground v.1.15,2013-01-28 04:03:00,
2013-01-27 23:09:00,29.0,22.7,30.48,NE,38,1.0,4.0,77,0.00,,,0.00,0,Wunderground v.1.15,2013-01-28 04:09:00,
2013-01-27 23:14:00,29.1,23.7,30.47,NE,36,0.0,2.0,80,0.00,,,0.00,0,Wunderground v.1.15,2013-01-28 04:14:00,
2013-01-27 23:20:00,29.1,23.1,30.47,NE,36,0.0,0.0,78,0.00,,,0.00,0,Wunderground v.1.15,2013-01-28 04:20:00,
2013-01-27 23:25:00,29.1,24.0,30.47,NE,36,0.0,0.0,81,0.00,,,0.00,0,Wunderground v.1.15,2013-01-28 04:25:00,
2013-01-27 23:30:00,29.1,24.0,30.46,NE,36,0.0,0.0,81,0.00,,,0.00,0,Wunderground v.1.15,2013-01-28 04:30:00,
2013-01-27 23:35:00,29.2,24.4,30.46,NE,37,0.0,0.0,82,0.00,,,0.00,0,Wunderground v.1.15,2013-01-28 04:35:00,
2013-01-27 23:41:00,29.2,24.4,30.46,NE,35,0.0,0.0,82,0.00,,,0.00,0,Wunderground v.1.15,2013-01-28 04:41:00,
2013-01-27 23:46:00,29.4,24.6,30.46,NE,36,0.0,0.0,82,0.00,,,0.00,0,Wunderground v.1.15,2013-01-28 04:46:00,
2013-01-27 23:51:00,29.4,24.6,30.47,NE,38,0.0,0.0,82,0.00,,,0.00,0,Wunderground v.1.15,2013-01-28 04:51:00,
2013-01-27 23:57:00,29.3,24.2,30.46,NE,36,0.0,0.0,81,0.00,,,0.00,0,Wunderground v.1.15,2013-01-28 04:57:00,